Погода в Калибо

Филиппины     11°41′54″N   122°22′08″E
темп.,
°C
ветер,
м/с
пор.,
м/с
влажн.,
%
обл.,
%
осадки,
мм/ч
давл.,
гПа
погр.,
м
20 июня, вс
вс2023:00+26юз3783100 0.0 1010321
02:00+25юз2687100 0.0 1008236
05:00+25юз2591100 0.3 1009172
08:00+28юз367778 0.8 1010775
11:00+31зюз4661100 0.0 10091150
14:00+30зюз5762100 0.1 10081062
17:00+28зюз5975100 0.1 1007864
20:00+26зюз3983100 0.1 1009512
21 июня, пн
пн2123:00+26юз3885100 0.3 1010387
02:00+26зюз4985100 0.4 1008532
05:00+26юз3883100 0.1 1009445
08:00+27юз3880100 0.2 1010738
11:00+29зюз4768100 0.0 10091032
14:00+28зюз5971100 0.0 1008955
17:00+27зюз4977100 0.0 1008827
20:00+26зюз3883100 0.1 1010424
22 июня, вт
вт2223:00+26юз4882100 0.0 1010496
02:00+25юз3884100 2.4 1009429
05:00+25зюз4881100 1.2 1010471
08:00+26зюз4878100 1.2 1011681
11:00+26зюз4982100 0.3 1011666
14:00+25зюз3985100 0.4 1010672
17:00+26зюз3882100 0.0 1009653
20:00+25юз2487100 0.0 1011175
23 июня, ср
ср2323:00+25зюз2686100 0.0 1012217
02:00+25зюз3784100 0.1 1010394
05:00+25юз2586100 0.3 1010178
08:00+26юз2779100 0.9 1012549
11:00+28юз3769100 0.0 1011814
14:00+28зюз2567100 0.0 1009752
17:00+27зюз4775100 0.0 1009650
20:00+25юз2484100 0.0 1010156
24 июня, чт
чт2423:00+25юз2488100 0.0 1011119
02:00+24ююз2392100 0.4 100994
05:00+24ююз2392100 0.3 1009103
08:00+26ююз1486100 0.5 1010330
11:00+30зюз4761100 0.4 10091293
14:00+29зюз5965100 1.4 10081037
17:00+26зюз41076100 0.1 1008670
20:00+26зюз3782100 0.1 1009428